| time (UTC) | temp F | wind direction | speed knots | gust knots | rain 1hr in | rain 24hr in | rain mn in | humidity % | barometer mb |
| 20260505140649 | 53 | 335 | 1.7 | 4.3 | 0.00 | 0.33 | 0.33 | 87 | 1017.5 |
| 20260505124536 | 53 | 263 | 1.7 | 5.2 | 0.00 | 0.33 | 0.33 | 89 | 1017.7 |
| 20260505123600 | 53 | 4 | 3.5 | 9.6 | 0.00 | 0.33 | 0.33 | 89 | 1017.7 |
| 20260505122624 | 53 | 331 | 3.5 | 7.0 | 0.00 | 0.33 | 0.33 | 89 | 1017.8 |
| 20260505120648 | 52 | 348 | 2.6 | 7.8 | 0.00 | 0.33 | 0.33 | 90 | 1018.0 |
| 20260505115536 | 52 | 348 | 3.5 | 9.6 | 0.00 | 0.33 | 0.33 | 93 | 1017.9 |
| 20260505114536 | 51 | 322 | 2.6 | 5.2 | 0.00 | 0.33 | 0.33 | 96 | 1018.0 |
| 20260505113648 | 50 | 322 | 3.5 | 5.2 | 0.00 | 0.33 | 0.33 | 96 | 1018.0 |
| 20260505112712 | 50 | 26 | 2.6 | 5.2 | 0.00 | 0.33 | 0.33 | 96 | 1018.1 |
| 20260505111537 | 50 | 316 | 2.6 | 7.8 | 0.00 | 0.33 | 0.33 | 97 | 1018.1 |
| 20260505100639 | 50 | 5 | 4.3 | 7.8 | 0.00 | 0.33 | 0.33 | 99 | 1018.2 |
| 20260505095537 | 50 | 303 | 2.6 | 7.0 | 0.00 | 0.33 | 0.33 | 99 | 1018.0 |
| 20260505094648 | 50 | 296 | 2.6 | 7.8 | 0.00 | 0.33 | 0.33 | 99 | 1018.1 |
| 20260505093607 | 50 | 347 | 2.6 | 4.3 | 0.00 | 0.33 | 0.33 | 99 | 1018.1 |
| 20260505092536 | 50 | 330 | 1.7 | 4.3 | 0.00 | 0.33 | 0.33 | 99 | 1018.1 |
| 20260505091608 | 50 | 324 | 2.6 | 4.3 | 0.00 | 0.33 | 0.33 | 99 | 1018.1 |
| 20260505090729 | 50 | 321 | 2.6 | 4.3 | 0.00 | 0.33 | 0.33 | 99 | 1018.3 |
| 20260505085752 | 49 | 349 | 2.6 | 4.3 | 0.00 | 0.33 | 0.33 | 99 | 1018.3 |
| 20260505083536 | 49 | 294 | 1.7 | 2.6 | 0.01 | 0.33 | 0.33 | 99 | 1018.3 |
| 20260505082736 | 49 | 296 | 0.9 | 2.6 | 0.01 | 0.33 | 0.33 | 99 | 1018.2 |
| 20260505081647 | 49 | 348 | 2.6 | 5.2 | 0.02 | 0.33 | 0.33 | 99 | 1018.1 |
| 20260505075631 | 49 | 327 | 2.6 | 4.3 | 0.02 | 0.33 | 0.33 | 99 | 1018.0 |
| 20260505073552 | 49 | 337 | 2.6 | 7.8 | 0.02 | 0.32 | 0.32 | 99 | 1018.1 |
| 20260505072728 | 49 | 337 | 1.7 | 2.6 | 0.02 | 0.32 | 0.32 | 99 | 1018.1 |
| 20260505071735 | 49 | 319 | 2.6 | 4.3 | 0.03 | 0.31 | 0.31 | 99 | 1018.0 |
| 20260505065736 | 48 | 324 | 2.6 | 5.2 | 0.05 | 0.31 | 0.31 | 99 | 1018.0 |
| 20260505064601 | 48 | 316 | 1.7 | 2.6 | 0.06 | 0.31 | 0.31 | 99 | 1018.1 |
| 20260505063743 | 48 | 356 | 1.7 | 5.2 | 0.06 | 0.30 | 0.30 | 99 | 1018.1 |
| 20260505062728 | 48 | 304 | 1.7 | 4.3 | 0.07 | 0.30 | 0.30 | 99 | 1018.1 |
| 20260505061615 | 48 | 282 | 1.7 | 4.3 | 0.07 | 0.28 | 0.28 | 99 | 1018.2 |
| 20260505055559 | 47 | 329 | 2.6 | 5.2 | 0.08 | 0.26 | 0.26 | 99 | 1018.2 |
| 20260505054559 | 47 | 339 | 1.7 | 5.2 | 0.09 | 0.25 | 0.25 | 99 | 1018.2 |
| 20260505053759 | 47 | 288 | 2.6 | 7.0 | 0.09 | 0.24 | 0.24 | 99 | 1018.3 |
| 20260505052601 | 48 | 306 | 1.7 | 4.3 | 0.09 | 0.23 | 0.23 | 99 | 1018.2 |
| 20260505051607 | 48 | 299 | 1.7 | 2.6 | 0.08 | 0.21 | 0.21 | 99 | 1018.3 |
| 20260505050552 | 48 | 333 | 0.9 | 4.3 | 0.07 | 0.19 | 0.19 | 99 | 1018.2 |
| 20260505034728 | 48 | 323 | 1.7 | 4.3 | 0.09 | 0.09 | 0.09 | 98 | 1018.1 |
| 20260505032640 | 49 | 314 | 0.9 | 5.2 | 0.05 | 0.05 | 0.05 | 95 | 1018.2 |
| 20260505030647 | 50 | 294 | 0.9 | 2.6 | 0.00 | 0.00 | 0.00 | 90 | 1018.3 |
| 20260505024536 | 51 | 329 | 1.7 | 4.3 | 0.00 | 0.00 | 0.00 | 87 | 1018.4 |
| 20260505023632 | 51 | 305 | 0.9 | 1.7 | 0.00 | 0.00 | 0.00 | 87 | 1018.4 |
| 20260505022528 | 51 | 262 | 0.9 | 2.6 | 0.00 | 0.00 | 0.00 | 86 | 1018.5 |
| 20260505021704 | 51 | 332 | 1.7 | 4.3 | 0.00 | 0.00 | 0.00 | 86 | 1018.6 |
| 20260505020752 | 51 | 277 | 0.0 | 1.7 | 0.00 | 0.00 | 0.00 | 87 | 1018.6 |
| 20260505015624 | 51 | 291 | 0.9 | 2.6 | 0.00 | 0.00 | 0.00 | 86 | 1018.6 |
| 20260505014625 | 51 | 320 | 1.7 | 2.6 | 0.00 | 0.00 | 0.00 | 85 | 1018.7 |
| 20260505013608 | 51 | 318 | 2.6 | 4.3 | 0.00 | 0.00 | 0.00 | 85 | 1018.6 |
| 20260505012616 | 51 | 335 | 1.7 | 5.2 | 0.00 | 0.00 | 0.00 | 86 | 1018.7 |
| 20260505011728 | 52 | 327 | 1.7 | 4.3 | 0.00 | 0.00 | 0.00 | 86 | 1018.6 |
| 20260505010616 | 52 | 331 | 3.5 | 5.2 | 0.00 | 0.00 | 0.00 | 86 | 1018.7 |
| 20260505005600 | 52 | 303 | 1.7 | 4.3 | 0.00 | 0.00 | 0.00 | 86 | 1018.9 |
| 20260505004712 | 52 | 318 | 1.7 | 4.3 | 0.00 | 0.00 | 0.00 | 87 | 1019.0 |
| 20260505001632 | 53 | 339 | 0.9 | 5.2 | 0.00 | 0.00 | 0.00 | 88 | 1019.1 |
| 20260505000712 | 53 | 321 | 0.9 | 2.6 | 0.00 | 0.00 | 0.00 | 88 | 1019.3 |
| 20260504235600 | 53 | 0.0 | 0.0 | 0.00 | 0.00 | 0.00 | 88 | 1019.3 | |
| 20260504234536 | 53 | 334 | 0.9 | 4.3 | 0.00 | 0.00 | 0.00 | 88 | 1019.4 |
| 20260504232624 | 53 | 306 | 0.9 | 1.7 | 0.00 | 0.00 | 0.00 | 88 | 1019.5 |
| 20260504230737 | 53 | 326 | 1.7 | 2.6 | 0.00 | 0.00 | 0.00 | 89 | 1019.4 |
| 20260504225601 | 53 | 289 | 0.9 | 1.7 | 0.00 | 0.00 | 0.00 | 89 | 1019.6 |
| 20260504223537 | 54 | 296 | 0.0 | 1.7 | 0.00 | 0.00 | 0.00 | 89 | 1019.7 |
| 20260504222601 | 54 | 305 | 0.0 | 2.6 | 0.00 | 0.00 | 0.00 | 88 | 1019.7 |
| 20260504220626 | 54 | 0.0 | 0.0 | 0.00 | 0.00 | 0.00 | 88 | 1019.9 | |
| 20260504214713 | 55 | 0.0 | 0.0 | 0.00 | 0.00 | 0.00 | 87 | 1019.9 | |
| 20260504212601 | 55 | 297 | 0.0 | 1.7 | 0.00 | 0.00 | 0.00 | 87 | 1019.9 |
| 20260504211601 | 55 | 0.0 | 0.0 | 0.00 | 0.00 | 0.00 | 86 | 1019.9 | |
| 20260504210625 | 55 | 296 | 0.0 | 1.7 | 0.00 | 0.00 | 0.00 | 86 | 1020.0 |
| 20260504202737 | 57 | 0.0 | 0.0 | 0.00 | 0.00 | 0.00 | 82 | 1020.0 | |
| 20260504201713 | 57 | 0.0 | 0.0 | 0.00 | 0.00 | 0.00 | 82 | 1020.2 | |
| 20260504200601 | 58 | 298 | 0.9 | 1.7 | 0.00 | 0.00 | 0.00 | 81 | 1020.1 |
| 20260504193625 | 59 | 0.0 | 0.0 | 0.00 | 0.00 | 0.00 | 79 | 1019.8 | |
| 20260504192625 | 59 | 298 | 1.7 | 4.3 | 0.00 | 0.00 | 0.00 | 77 | 1019.6 |
| 20260504191713 | 59 | 0.0 | 0.0 | 0.00 | 0.00 | 0.00 | 77 | 1019.7 | |
| 20260504185713 | 60 | 0.0 | 0.0 | 0.00 | 0.00 | 0.00 | 75 | 1019.7 | |
| 20260504183537 | 61 | 283 | 0.0 | 1.7 | 0.00 | 0.00 | 0.00 | 72 | 1019.7 |
| 20260504182713 | 61 | 298 | 0.9 | 2.6 | 0.00 | 0.00 | 0.00 | 72 | 1019.4 |
| 20260504181601 | 61 | 294 | 0.9 | 2.6 | 0.00 | 0.00 | 0.00 | 71 | 1019.5 |
| 20260504174209 | 63 | 301 | 1.7 | 2.6 | 0.00 | 0.00 | 0.00 | 68 | 1019.3 |
| 20260504171128 | 63 | 329 | 0.9 | 4.3 | 0.00 | 0.00 | 0.00 | 68 | 1019.4 |
| 20260504160112 | 65 | 343 | 2.6 | 7.0 | 0.00 | 0.00 | 0.00 | 63 | 1019.3 |